| time (UTC) | temp C | wind direction | speed KPH | gust KPH | rain 1hr cm | rain 24hr cm | rain mn cm | humidity % | barometer mb |
| 20260510104610 | 3 | 288 | 0.0 | 0.0 | 0.00 | 0.00 | 0.00 | 84 | 1017.4 |
| 20260510103042 | 4 | 288 | 0.0 | 0.0 | 0.00 | 0.00 | 0.00 | 83 | 1017.4 |
| 20260510101540 | 4 | 287 | 0.0 | 0.0 | 0.00 | 0.00 | 0.00 | 84 | 1017.6 |
| 20260510100021 | 5 | 287 | 0.0 | 0.0 | 0.00 | 0.00 | 0.00 | 83 | 1017.5 |
| 20260510094522 | 5 | 288 | 0.0 | 0.0 | 0.00 | 0.00 | 0.00 | 84 | 1017.5 |
| 20260510093004 | 5 | 288 | 0.0 | 0.0 | 0.00 | 0.00 | 0.00 | 84 | 1017.6 |
| 20260510091502 | 5 | 288 | 0.0 | 0.0 | 0.00 | 0.00 | 0.00 | 84 | 1017.7 |
| 20260510090127 | 5 | 288 | 0.0 | 0.0 | 0.00 | 0.00 | 0.00 | 84 | 1017.9 |
| 20260510084605 | 5 | 288 | 0.0 | 0.0 | 0.00 | 0.00 | 0.00 | 84 | 1017.9 |
| 20260510083114 | 5 | 288 | 0.0 | 0.0 | 0.00 | 0.00 | 0.00 | 83 | 1017.9 |
| 20260510081601 | 5 | 288 | 0.0 | 0.0 | 0.00 | 0.00 | 0.00 | 84 | 1017.9 |
| 20260510074556 | 5 | 287 | 0.0 | 0.0 | 0.00 | 0.00 | 0.00 | 82 | 1018.1 |
| 20260510073055 | 5 | 287 | 0.0 | 0.0 | 0.00 | 0.00 | 0.00 | 82 | 1018.1 |
| 20260510071552 | 6 | 288 | 0.0 | 0.0 | 0.00 | 0.00 | 0.00 | 81 | 1018.2 |
| 20260510070105 | 6 | 288 | 0.0 | 0.0 | 0.00 | 0.00 | 0.00 | 80 | 1018.2 |
| 20260510064607 | 6 | 288 | 0.0 | 0.0 | 0.00 | 0.00 | 0.00 | 79 | 1018.3 |
| 20260510063051 | 6 | 288 | 0.0 | 0.0 | 0.00 | 0.00 | 0.00 | 79 | 1018.2 |
| 20260510061551 | 7 | 288 | 0.0 | 0.0 | 0.00 | 0.00 | 0.00 | 78 | 1018.2 |
| 20260510060032 | 7 | 288 | 0.0 | 0.0 | 0.00 | 0.00 | 0.00 | 77 | 1018.3 |
| 20260510054522 | 7 | 288 | 0.0 | 0.0 | 0.00 | 0.00 | 0.00 | 76 | 1018.3 |
| 20260510053005 | 8 | 288 | 0.0 | 0.0 | 0.00 | 0.00 | 0.00 | 75 | 1018.4 |
| 20260510051609 | 8 | 288 | 0.0 | 0.0 | 0.00 | 0.00 | 0.00 | 74 | 1018.5 |
| 20260510050039 | 9 | 288 | 0.0 | 0.0 | 0.00 | 0.00 | 0.00 | 73 | 1018.5 |
| 20260510044538 | 10 | 288 | 0.0 | 0.0 | 0.00 | 0.00 | 0.00 | 71 | 1018.6 |
| 20260510043016 | 10 | 288 | 0.0 | 0.0 | 0.00 | 0.00 | 0.00 | 70 | 1018.5 |
| 20260510041514 | 11 | 288 | 0.0 | 0.0 | 0.00 | 0.00 | 0.00 | 68 | 1018.5 |
| 20260510040051 | 11 | 288 | 0.0 | 0.0 | 0.00 | 0.00 | 0.00 | 65 | 1018.4 |
| 20260510034558 | 12 | 288 | 0.0 | 0.0 | 0.00 | 0.00 | 0.00 | 63 | 1018.2 |
| 20260510033031 | 13 | 288 | 0.0 | 0.0 | 0.00 | 0.00 | 0.00 | 60 | 1018.2 |
| 20260510031536 | 14 | 288 | 0.0 | 0.0 | 0.00 | 0.00 | 0.00 | 57 | 1018.2 |
| 20260510030014 | 15 | 288 | 0.0 | 0.0 | 0.00 | 0.00 | 0.00 | 52 | 1018.1 |
| 20260510024514 | 17 | 288 | 0.0 | 0.0 | 0.00 | 0.00 | 0.00 | 49 | 1018.1 |
| 20260510023056 | 17 | 288 | 0.0 | 0.0 | 0.00 | 0.00 | 0.00 | 42 | 1018.1 |
| 20260510021555 | 17 | 288 | 0.0 | 0.0 | 0.00 | 0.00 | 0.00 | 39 | 1018.0 |
| 20260510020037 | 18 | 288 | 0.0 | 0.0 | 0.00 | 0.00 | 0.00 | 37 | 1018.2 |
| 20260510014539 | 18 | 288 | 0.0 | 0.0 | 0.00 | 0.00 | 0.00 | 33 | 1018.2 |
| 20260510013022 | 18 | 288 | 3.2 | 0.0 | 0.00 | 0.00 | 0.00 | 31 | 1018.2 |
| 20260510011522 | 18 | 288 | 4.8 | 0.0 | 0.00 | 0.00 | 0.00 | 32 | 1018.3 |
| 20260510010001 | 18 | 287 | 6.4 | 0.0 | 0.00 | 0.00 | 0.00 | 35 | 1018.4 |
| 20260510004500 | 20 | 283 | 4.8 | 0.0 | 0.00 | 0.00 | 0.00 | 31 | 1018.4 |
| 20260510003053 | 20 | 283 | 1.6 | 0.0 | 0.00 | 0.00 | 0.00 | 31 | 1018.4 |
| 20260510001542 | 19 | 302 | 6.4 | 0.0 | 0.00 | 0.00 | 0.00 | 34 | 1018.4 |
| 20260510000026 | 20 | 278 | 4.8 | 0.0 | 0.00 | 0.00 | 0.00 | 32 | 1018.3 |
| 20260509234535 | 20 | 269 | 6.4 | 0.0 | 0.00 | 0.00 | 0.00 | 33 | 1018.3 |
| 20260509233009 | 19 | 303 | 4.8 | 0.0 | 0.00 | 0.00 | 0.00 | 34 | 1018.4 |
| 20260509231505 | 19 | 290 | 6.4 | 0.0 | 0.00 | 0.00 | 0.00 | 32 | 1018.4 |
| 20260509230054 | 19 | 289 | 4.8 | 0.0 | 0.00 | 0.00 | 0.00 | 33 | 1018.5 |
| 20260509224546 | 19 | 285 | 6.4 | 0.0 | 0.00 | 0.00 | 0.00 | 33 | 1018.5 |
| 20260509223032 | 19 | 280 | 1.6 | 0.0 | 0.00 | 0.00 | 0.00 | 35 | 1018.6 |
| 20260509221528 | 19 | 259 | 1.6 | 0.0 | 0.00 | 0.00 | 0.00 | 34 | 1018.8 |
| 20260509220016 | 18 | 217 | 6.4 | 0.0 | 0.00 | 0.00 | 0.00 | 34 | 1019.1 |
| 20260509214509 | 18 | 294 | 3.2 | 0.0 | 0.00 | 0.00 | 0.00 | 38 | 1019.1 |
| 20260509213108 | 18 | 214 | 4.8 | 0.0 | 0.00 | 0.00 | 0.00 | 33 | 1019.4 |
| 20260509211558 | 18 | 236 | 3.2 | 0.0 | 0.00 | 0.00 | 0.00 | 36 | 1019.5 |
| 20260509210104 | 18 | 254 | 4.8 | 0.0 | 0.00 | 0.00 | 0.00 | 37 | 1019.6 |
| 20260509204537 | 18 | 280 | 6.4 | 0.0 | 0.00 | 0.00 | 0.00 | 35 | 1019.6 |
| 20260509203041 | 17 | 279 | 6.4 | 0.0 | 0.00 | 0.00 | 0.00 | 35 | 1019.8 |
| 20260509201533 | 17 | 211 | 6.4 | 0.0 | 0.00 | 0.00 | 0.00 | 36 | 1019.9 |
| 20260509200034 | 17 | 290 | 6.4 | 0.0 | 0.00 | 0.00 | 0.00 | 39 | 1020.1 |
| 20260509194531 | 17 | 201 | 6.4 | 0.0 | 0.00 | 0.00 | 0.00 | 42 | 1020.2 |
| 20260509193030 | 17 | 213 | 4.8 | 0.0 | 0.00 | 0.00 | 0.00 | 40 | 1020.4 |
| 20260509191529 | 17 | 284 | 3.2 | 0.0 | 0.00 | 0.00 | 0.00 | 41 | 1020.5 |
| 20260509190033 | 16 | 263 | 4.8 | 0.0 | 0.00 | 0.00 | 0.00 | 41 | 1020.5 |
| 20260509184625 | 16 | 205 | 3.2 | 0.0 | 0.00 | 0.00 | 0.00 | 42 | 1020.5 |
| 20260509183031 | 16 | 171 | 1.6 | 0.0 | 0.00 | 0.00 | 0.00 | 44 | 1020.6 |
| 20260509181516 | 16 | 174 | 3.2 | 0.0 | 0.00 | 0.00 | 0.00 | 43 | 1020.7 |
| 20260509180015 | 15 | 114 | 1.6 | 0.0 | 0.00 | 0.00 | 0.00 | 44 | 1020.6 |
| 20260509174507 | 15 | 101 | 1.6 | 0.0 | 0.00 | 0.00 | 0.00 | 43 | 1020.7 |
| 20260509173006 | 15 | 102 | 1.6 | 0.0 | 0.00 | 0.00 | 0.00 | 46 | 1020.6 |
| 20260509171501 | 14 | 72 | 1.6 | 0.0 | 0.00 | 0.00 | 0.00 | 47 | 1020.7 |
| 20260509170002 | 14 | 304 | 1.6 | 0.0 | 0.00 | 0.00 | 0.00 | 48 | 1020.7 |
| 20260509164606 | 14 | 304 | 0.0 | 0.0 | 0.00 | 0.00 | 0.00 | 45 | 1020.8 |
| 20260509163106 | 14 | 304 | 1.6 | 0.0 | 0.00 | 0.00 | 0.00 | 46 | 1020.9 |
| 20260509161550 | 13 | 303 | 0.0 | 0.0 | 0.00 | 0.00 | 0.00 | 46 | 1020.8 |
| 20260509160039 | 13 | 303 | 0.0 | 0.0 | 0.00 | 0.00 | 0.00 | 48 | 1020.6 |
| 20260509154523 | 13 | 303 | 0.0 | 0.0 | 0.00 | 0.00 | 0.00 | 52 | 1020.6 |
| 20260509153021 | 11 | 303 | 0.0 | 0.0 | 0.00 | 0.00 | 0.00 | 66 | 1020.7 |
| 20260509151601 | 10 | 303 | 0.0 | 0.0 | 0.00 | 0.00 | 0.00 | 75 | 1020.6 |
| 20260509150109 | 8 | 303 | 0.0 | 0.0 | 0.00 | 0.00 | 0.00 | 82 | 1020.6 |
| 20260509144537 | 7 | 303 | 0.0 | 0.0 | 0.00 | 0.00 | 0.00 | 86 | 1020.7 |
| 20260509143046 | 7 | 303 | 0.0 | 0.0 | 0.00 | 0.00 | 0.00 | 88 | 1020.8 |
| 20260509141524 | 5 | 303 | 0.0 | 0.0 | 0.00 | 0.00 | 0.00 | 91 | 1020.7 |
| 20260509140016 | 3 | 303 | 0.0 | 0.0 | 0.00 | 0.00 | 0.00 | 90 | 1020.6 |
| 20260509134558 | 2 | 303 | 0.0 | 0.0 | 0.00 | 0.00 | 0.00 | 90 | 1020.5 |
| 20260509133105 | 2 | 303 | 0.0 | 0.0 | 0.00 | 0.00 | 0.00 | 90 | 1020.4 |
| 20260509131539 | 2 | 303 | 0.0 | 0.0 | 0.00 | 0.00 | 0.00 | 91 | 1020.1 |
| 20260509130039 | 1 | 303 | 0.0 | 0.0 | 0.00 | 0.00 | 0.00 | 90 | 1020.1 |
| 20260509124521 | 1 | 303 | 0.0 | 0.0 | 0.00 | 0.00 | 0.00 | 90 | 1020.0 |
| 20260509123016 | 1 | 303 | 0.0 | 0.0 | 0.00 | 0.00 | 0.00 | 89 | 1019.9 |
| 20260509121601 | 1 | 303 | 0.0 | 0.0 | 0.00 | 0.00 | 0.00 | 89 | 1019.7 |
| 20260509120055 | 1 | 303 | 0.0 | 0.0 | 0.00 | 0.00 | 0.00 | 89 | 1019.5 |
| 20260509114555 | 1 | 303 | 0.0 | 0.0 | 0.00 | 0.00 | 0.00 | 88 | 1019.3 |
| 20260509113039 | 2 | 303 | 0.0 | 0.0 | 0.00 | 0.00 | 0.00 | 89 | 1019.2 |
| 20260509111537 | 2 | 303 | 0.0 | 0.0 | 0.00 | 0.00 | 0.00 | 89 | 1019.1 |
| 20260509110035 | 1 | 303 | 0.0 | 0.0 | 0.00 | 0.00 | 0.00 | 88 | 1018.9 |